Regional Weather Roundup
Issued by NWS Sioux Falls, SD

Home | Current Version | Previous Version | Graphics & Text | Print | Product List | Glossary On
Versions: 1 2 3 4 5 6 7 8 9 10 11 12 13 14 15 16 17 18 19 20 21 22 23 24 25 26 27 28 29 30 31 32 33 34 35 36 37 38 39 40 41 42 43 44 45 46 47 48 49 50
000
ASUS43 KFSD 210802
RWRFSD

WEATHER ROUNDUP FOR SE SOUTH DAKOTA/SW MINNESOTA/NW IOWA
NATIONAL WEATHER SERVICE SIOUX FALLS SD
200 AM CST SUN DEC 21 2014

NOTE: "FAIR" INDICATES FEW OR NO CLOUDS BELOW 12,000 FEET WITH NO
SIGNIFICANT WEATHER AND OR OBSTRUCTIONS TO VISIBILITY.


SDZ038>040-050-052>070-210900-
SOUTHEAST SOUTH DAKOTA

CITY           SKY/WX    TMP DP  RH WIND       PRES   REMARKS
CHAMBERLAIN    NOT AVBL
HURON          CLOUDY    31  29  92 S10       29.84F FOG     WCI  22
MADISON        FOG       28  28 100 S14       29.88F VSB 1/4 WCI  17
MITCHELL       CLOUDY    32  31  96 S14       29.87F FOG     WCI  22
SIOUX FALLS    FOG       31  30  96 S10       29.91F VSB 1/2 WCI  22
WINNER         FAIR      34  25  69 S5        29.81F WCI  30
YANKTON        CLOUDY    32  30  93 S8        29.91F WCI  25
$$

MNZ071-072-080-081-089-090-097-098-210900-
SOUTHWEST MINNESOTA

CITY           SKY/WX    TMP DP  RH WIND       PRES   REMARKS
FAIRMONT       CLOUDY    32  28  86 S14       29.97F WCI  22
JACKSON        CLOUDY    32  30  93 S12       29.96F FOG     WCI  23
LUVERNE        FOG       32  32 100 S13       29.92F VSB 1/2 WCI  22
MARSHALL       CLOUDY    30  27  86 S12       29.92F WCI  21
MONTEVIDEO     CLOUDY    30  30 100 S7        29.93F FOG     WCI  23
PIPESTONE      FOG       30  28  93 S5        29.89F VSB 1/4 WCI  25
REDWOOD FALLS  CLOUDY    32  30  92 S10       29.96F WCI  24
TRACY          CLOUDY    32  31  96 S13G18    29.92F FOG     WCI  22
WINDOM         CLOUDY    30  30 100 S8        29.94F FOG     WCI  23
WORTHINGTON    CLOUDY    30  28  93 S10       29.93F VSB 1   WCI  21
$$

IAZ001>003-012>014-020>022-031-032-NEZ013-014-SDZ071-210900-
NORTHWEST IOWA

CITY           SKY/WX    TMP DP  RH WIND       PRES   REMARKS
DENISON        CLOUDY    34  34 100 S9        29.95F FOG     WCI  26
ESTHERVILLE    CLOUDY    31  30  96 S17       29.97F FOG     WCI  19
SIOUX CITY     FOG       33  32  96 SE10      29.94F VSB 1/2 WCI  25
SPENCER        CLOUDY    32  30  92 S9        29.96F FOG     WCI  24
$$

ABBREVIATIONS USED IN REMARKS
   TC - TEMPERATURE IN CELSIUS
  WCI - WIND CHILL INDEX
   HX - HEAT INDEX
  VSB - VISIBILITY



USA.gov is the U.S. government's official web portal to all federal, state and local government web resources and services.